Время (UTC), дата Ветер
(°,м/с) 
Видим.   Явления Облачность Т
(°С)
Тd
(°С)
f(%) Тe
(°С)
Pmin
(гПа)
dP
(гПа)
Po
(мм)
O2
(г/м3)
Тmin Tmax R s Состояние
почвы
00 01.12.12 110 (В) 3{11}  10 км  {снег} [диам. гололёда 1 мм]  10/10 300 м 
[St]
-5.3 -6.3 93 -8  1010.2  -3  747  307           
03 01.12.12 120 (ЮВ) 1000 м  дымка{снег} [диам. гололёда 1 мм]  10/10 300 м 
[St]
-2.8 -3.6 94 -2  1008.9  -1.1  746  304  -10.8    12  13  равномерный
мокрый или
старый снег
100% 
06 01.12.12 160 (Ю) 0500 м  туман [диам. гололёда 1 мм]  ?/?  
-0.2 -0.8 96 1009.5  0.8  746  301      12     
09 01.12.12 150 (ЮВ) 0200 м  туман  ?/?  
+1 +0.5 96 +2  1011  1.5  747  300           
12 01.12.12 170 (Ю) 0200 м  туман  ?/?  
+1.6 +1.2 97 +2  1012.1  1.1  748  300           
15 01.12.12 250 (З) 0200 м  туман  ?/?  
+3.7 +3.3 97 +5  1013.5  1.5  749  297    +3.7       
18 01.12.12 250 (З) 1000 м  в посл. час туман  10/10 180 м 
[St]
+3.9 +3.5 97 +5  1014.4  0.9  750  297           
21 01.12.12 тихо ()   0200 м  туман  ?/?  
+2.6 +2.1 96 +3  1016  1.5  751  299           
00 02.12.12 тихо ()   0200 м  туман  ?/?  
+2.3 +1.9 97 +2  1016.8  0.8  752  300           
03 02.12.12 тихо ()   0200 м  туман  ?/?  
+1.9 +1.5 97 +2  1018  1.2  753  301  +1.9      равномерный
мокрый или
старый снег
100% 
09 02.12.12 110 (В) 4000 м    10/10 270 м 
[St]
+2.2 +1.8 97 +1  1017.3  -0.5  752  300           
12 02.12.12 110 (В) 0500 м  туман  ?/?  
+2 +1.6 97 1016  -1.3  751  300           
18 02.12.12 100 (В) 0500 м  слаб. дождь{морось}  ?/?  
+1.4 +1.1 98 -1  1012  -2.8  748  300           
21 02.12.12 080 (В) 2000 м  снег{дождь}  10/10 500 м 
[Ns]
+0.3 -0 98 -1  1009.8  -2.2  746  300           
03 03.12.12 350 (С) 4000 м  слаб. снег [диам. гололёда 1 мм]  9/9 180 м средняя 
[Frnb|As op]
-3.2 -3.5 98 -4  1009.4  0.9  746  305  -3.3    13  15  равномерный
сухой снег
100% 
12 03.12.12 340 (С) 2{10}  10 км  [диам. гололёда 1 мм]  10/10 480 м 
[Sc]
-4 -5.2 91 -5  1016.9  2.4  752  308           
15 03.12.12 350 (С) 10 км  [диам. гололёда 1 мм]  10/10 600 м 
[Sc]
-4.3 -6.1 87 -6  1018.8  1.8  753  309    -1.7  0.2     
18 03.12.12 040 (СВ) 10 км  [диам. гололёда 1 мм]  10/10 480 м 
[Sc]
-4.9 -7.1 84 -6  1019  -0.1  753  310           
21 03.12.12 090 (В) 10 км  [диам. гололёда 1 мм]  10/10 540 м 
[Sc]
-5.6 -7.8 84 -7  1019.3  0.3  753  311           
03 04.12.12 100 (В) 10 км  [диам. гололёда 1 мм]  10/10 360 м 
[St]
-6 -7.5 89 -9  1015.9  -2.4  751  310  -6.2      15  равномерный
сухой снег
100% 
06 04.12.12 110 (В) 10 км  [диам. гололёда 1 мм]  10/10 270 м 
[St]
-4.6 -5.9 91 -8  1013.8  -2  749  308           
15 04.12.12 140 (ЮВ) 2000 м  дымка{морось} [диам. гололёда 1 мм]  10/10 180 м 
[St]
-1.6 -2.4 94 -4  1004.1  -2.8  742  301    -1.6     
21 04.12.12 160 (Ю) 3{10}  10 км    10/10 450 м 
[St]
+1.9 +0.8 92 999.1  -1.4  739  295           
03 05.12.12 250 (З) 10 км    10/10 480 м 
[St]
+1.9 -0.6 84 1001.4  1.9  740  296  -1.6      равномерный
мокрый или
старый снег
100% 
06 05.12.12 250 (З) 10 км  в посл. час снег  10/10 840 м 
[Sc]
+0.9 -1.4 85 1004  2.5  742  298           
09 05.12.12 260 (З) 10 км    10/10 720 м 
[Sc]
+0.7 -2.8 77 -1  1005.8  1.7  744  299           
12 05.12.12 290 (З) 10 км    10/10 800 м 
[Sc]
-0.8 -4.6 75 -3  1008.9  746  302           
15 05.12.12 300 (СЗ) 10 км    9/9 800 м 
[Sc]
-1.4 -5.3 75 -3  1011.3  2.3  748  303    +1.9  0.0     
18 05.12.12 310 (СЗ) 10 км    10/10 900 м 
[Sc]
-2.6 -8.1 66 -5  1014.6  3.2  750  306           
21 05.12.12 330 (СЗ) 10 км    3/0 средняя 
[Ac cast]
-3.7 -8.3 70 -3  1016.9  2.2  752  308           
00 06.12.12 тихо ()   10 км    ясно 
-6.5 -9.1 82 -7  1018.7  1.5  753  312           
03 06.12.12 тихо ()   10 км    ясно 
-8.2 -9.7 89 -8  1020.6  1.7  754  314  -8.2      равномерный
мокрый или
старый снег
100% 
06 06.12.12 110 (В) >10 км    5/0 средняя, верхняя 
[Ac lent|Ci fib]
-7 -8.4 90 -7  1021.7  1.2  755  313  -8.5         
09 06.12.12 100 (В) >10 км    3/0 верхняя 
[Ci fib]
-4.1 -8.1 74 -5  1022.1  0.6  755  310           
12 06.12.12 060 (СВ) >10 км    ясно 
-4.8 -8.5 75 -6  1022.8  0.7  756  311           
15 06.12.12 100 (В) 10 км    ясно 
-6.4 -9.1 81 -8  1023.3  0.3  756  313    -3.7       
18 06.12.12 080 (В) 10 км    ясно 
-7.6 -9.8 84 -10  1023.3  756  314    -3.7       
21 06.12.12 080 (В) 10 км    ясно 
-7.5 -10 82 -10  1023.4  756  314           
00 07.12.12 080 (В) 10 км    ясно 
-6.7 -10.3 76 -10  1022.4  -0.9  755  313           
03 07.12.12 100 (В) 10 км    ясно 
-7.3 -10.9 75 -7  1022  -0.4  755  314  -7.8      равномерный
мокрый или
старый снег
100% 
06 07.12.12 090 (В) >10 км    ясно 
-6.3 -11.1 69 -9  1021.5  -0.4  755  312           
09 07.12.12 090 (В) >10 км    8/0 верхняя 
[Cs]
-4.9 -10.3 66 -7  1021.1  -0.4  755  311           
12 07.12.12 080 (В) >10 км    8/0 верхняя 
[Cs]
-4.8 -10.4 65 -8  1020.6  -0.5  754  310           
15 07.12.12 090 (В) 4{10}  10 км    9/0 верхняя 
[Cs]
-4.9 -10.4 65 -8  1020.2  -0.4  754  310    -4.5       
18 07.12.12 090 (В) 3{11}  10 км    8/0 верхняя 
[Cs]
-5.2 -10.2 68 -8  1020.1  -0.1  754  311    -4.5       
21 07.12.12 090 (В) 10 км    10/0 
-4.7 -9.5 69 -7  1020.3  0.2  754  310           
00 08.12.12 090 (В) 10 км    9/0 средняя 
[As op]
-4.5 -8.6 73 -7  1020.4  0.1  754  310           
03 08.12.12 080 (В) 10 км    6/0 
-5 -7.8 81 -7  1020.4  0.5  754  310  -5.4      равномерный
мокрый или
старый снег
100% 
06 08.12.12 080 (В) 10 км    10/10 700 м 
[Sc]
-5 -7.2 85 -7  1022.5  1.6  756  311           
09 08.12.12 080 (В) 2000 м  снег  10/10 330 м 
[Ns]
-4.8 -6.5 88 -7  1023.5  756  311           
12 08.12.12 080 (В) 4000 м  снег{ливн. осадки}  10/10 450 м 
[Ns]
-4.6 -6.3 88 -7  1025.4  1.8  758  311           
15 08.12.12 090 (В) 10 км  слаб. снег  10/0 средняя 
[As op]
-4.8 -6.6 87 -8  1026.6  1.2  759  312    -4.5     
18 08.12.12 090 (В) 10 км  {снег}  9/9 480 м средняя 
[Sc|As op]
-5.1 -6.8 88 -6  1028  1.3  760  313           
21 08.12.12 090 (В) 10 км    10/10 400 м 
[St]
-5 -7 86 -7  1029.5  1.5  761  313           
00 09.12.12 090 (В) 10 км    10/10 300 м 
[St]
-5.3 -7.3 86 -8  1030.3  0.8  761  314           
03 09.12.12 090 (В) 10 км    10/10 420 м 
[St]
-5.6 -7.6 86 -7  1030.8  0.5  762  314  -5.8    0.2  10  равномерный
сухой снег
100% 
06 09.12.12 100 (В) 10 км  слаб. снег  10/0 средняя 
[As trans]
-5.5 -7.5 86 -8  1031.8  763  314           
09 09.12.12 110 (В) 10 км  слаб. снег  10/0 средняя 
[As trans]
-5.4 -7.4 86 -8  1033  763  315           
12 09.12.12 110 (В) 10 км  слаб. снег  10/0 средняя 
[As trans]
-5.8 -7.6 87 -8  1033.5  0.5  764  315           
15 09.12.12 100 (В) 2000 м  снег  10/0 средняя 
[As trans]
-6.2 -7.8 88 -10  1033.8  0.3  764  316    -5.4  0.4     
18 09.12.12 100 (В) 4000 м  снег  10/10 400 м 
[Ns]
-6.5 -8 89 -9  1034.9  1.1  765  317           
21 09.12.12 110 (В) 10 км  слаб. снег  10/0 средняя 
[As op]
-6.8 -8.3 89 -10  1035.1  0.2  765  317           
00 10.12.12 110 (В) 4000 м  снег  10/10 330 м 
[Ns]
-6.4 -7.7 91 -9  1035.5  0.4  765  317           
03 10.12.12 110 (В) 10 км  слаб. снег  10/10 300 м 
[Frnb|Ns]
-5.6 -6.8 91 -7  1036.3  0.8  766  316  -6.8    12  равномерный
сухой снег
100% 
06 10.12.12 120 (ЮВ) 10 км  слаб. снег  10/10 300 м 
[Ns]
-5.6 -6.8 91 -7  1037.3  767  316           
09 10.12.12 140 (ЮВ) 4000 м  снег  10/10 240 м 
[Ns]
-4.9 -6.2 91 -6  1037.3  0.7  767  315           
12 10.12.12 120 (ЮВ) 10 км  слаб. снег  10/10 1000 м 
[Sc]
-4.9 -6.8 86 -6  1038.4  0.4  767  316           
15 10.12.12 110 (В) 10 км  {снег}  10/0 средняя 
[Ac und]
-5.7 -8 84 -7  1039.2  0.8  768  317    -4.7  0.6     
18 10.12.12 130 (ЮВ) 10 км  {снег}  9/0 средняя 
[Ac As]
-6.8 -9.5 81 -6  1039.7  0.4  768  318           
21 10.12.12 150 (ЮВ) 10 км    9/0 средняя 
[Ac As]
-7.9 -10.6 81 -9  1040.6  0.8  769  320           
00 11.12.12 130 (ЮВ) 10 км    9/0 средняя 
[Ac As]
-10.1 -12.8 81 -10  1040.9  0.2  769  323           
03 11.12.12 110 (В) 10 км    8/0 средняя 
[Ac As]
-12.6 -14.9 83 -15  1041.3  0.2  769  326  -12.6      11  равномерный
сухой снег
100% 
06 11.12.12 130 (ЮВ) 10 км    6/0 средняя, верхняя 
[Ac lent|Cs]
-13 -15.7 80 -13  1042.4  770  327  -13.1         
09 11.12.12 130 (ЮВ) >10 км    5/0 верхняя 
[Cc]
-11.2 -15.2 72 -11  1042  -0.2  770  325           
12 11.12.12 110 (В) 10 км    8/0 верхняя 
[Cs]
-11.8 -16 71 -12  1041.7  -0.4  770  325           
15 11.12.12 110 (В) 10 км    6/0 верхняя 
[Ci fib]
-13.6 -17 76 -16  1041.9  770  328    -10.7       
18 11.12.12 100 (В) 10 км    ясно 
-14.1 -17.9 73 -16  1041.8  0.1  770  328           
21 11.12.12 120 (ЮВ) 10 км    ясно 
-14.3 -17.6 76 -14  1042.5  0.1  770  329           
00 12.12.12 110 (В) 10 км    ясно 
-15.8 -18.6 79 -20  1042.9  0.3  770  331           
03 12.12.12 110 (В) 10 км    ясно 
-15.9 -18.5 81 -18  1043.3  0.4  771  331  -16.2      11  равномерный
сухой снег
100% 
06 12.12.12 120 (ЮВ) 10 км    3/0 средняя 
[Ac trans]
-14.2 -17.2 78 -14  1043.7  0.4  771  329           
09 12.12.12 160 (Ю) >10 км    ясно 
-11 -17.5 59 -11  1043.7  0.2  771  325           
12 12.12.12 110 (В) 10 км    ясно 
-11.6 -17.5 62 -14  1045.2  1.4  772  326           
15 12.12.12 110 (В) 10 км    3/0 средняя 
[Ac trans]
-12.6 -16.8 71 -15  1046  0.8  773  328    -10.6       
18 12.12.12 110 (В) 10 км    4/0 средняя 
[Ac lent]
-12.2 -16.6 70 -14  1046.1  0.1  773  327           
21 12.12.12 110 (В) 10 км    ясно 
-13 -16.1 77 -17  1047.7  1.5  774  329           
00 13.12.12 110 (В) 10 км    ясно 
-14.5 -16.9 82 -18  1049  1.2  775  331           
03 13.12.12 100 (В) 10 км    ясно 
-16.1 -19 79 -20  1049.7  0.6  775  334  -16.1      11  равномерный
сухой снег
100% 
06 13.12.12 110 (В) 10 км    ясно 
-18.2 -20.9 79 -22  1051.8  1.9  777  337  -18.3         
09 13.12.12 100 (В) 10 км    ясно 
-16.1 -20.1 71 -18  1052.7  1.9  777  335           
12 13.12.12 090 (В) 10 км    ясно 
-16.2 -20.5 69 -20  1053.2  0.5  778  335           
15 13.12.12 090 (В) 10 км    ясно 
-17.4 -20.8 75 -21  1053.4  0.1  778  336    -15.6       
18 13.12.12 110 (В) 10 км    ясно 
-19.1 -22.2 76 -22  1054.6  779  339           
21 13.12.12 090 (В) 10 км    ясно 
-20 -23.2 76 -23  1055  0.3  779  340           
00 14.12.12 080 (В) 10 км    ясно 
-20.5 -23.8 75 -21  1055.2  0.2  779  341           
06 14.12.12 050 (СВ) 10 км    ясно 
-20 -23.2 76 -20  1055.6  0.4  779  341  -20.7         
09 14.12.12 050 (СВ) 10 км    ясно 
-16.5 -21.1 67 -17  1055.8  0.4  780  336           
12 14.12.12 020 (С) 10 км    ясно 
-17.7 -22.2 67 -20  1056  0.2  780  338           
15 14.12.12 020 (С) 10 км    ясно 
-19.2 -22.7 74 -23  1056.1  780  340    -14.8       
18 14.12.12 030 (СВ) 10 км    ясно 
-19.5 -22.4 78 -20  1056.1  780  340           
21 14.12.12 060 (СВ) 10 км    ясно 
-20.1 -22.9 78 -20  1056.9  0.7  780  341           
00 15.12.12 030 (СВ) 10 км    ясно 
-20.8 -23.4 79 -21  1057.3  0.4  781  342           
03 15.12.12 тихо ()   10 км    ясно 
-20.7 -23.5 78 -21  1057.6  0.2  781  342  -20.9      11  равномерный
сухой снег
100% 
06 15.12.12 260 (З) 10 км    ясно 
-20.8 -23.3 80 -21  1057.9  0.3  781  342  -21.4         
09 15.12.12 270 (З) 10 км    ясно 
-16.8 -20.3 74 -17  1057.4  -0.3  781  337           
12 15.12.12 020 (С) 4000 м    5/0 верхняя 
[Cs]
-16.1 -19.4 76 -16  1056.8  -0.5  781  336           
15 15.12.12 020 (С) 10 км    3/0 верхняя 
[Ci fib]
-18 -20.7 79 -21  1056.2  -0.8  780  338    -15.7       
18 15.12.12 340 (С) 10 км    9/9 1380 м 
[Sc]
-17.3 -19.4 84 -17  1054.9  -1.3  779  337           
21 15.12.12 300 (СЗ) 10 км  слаб. снег  10/10 1200 м 
[Sc]
-15.9 -18.1 83 -18  1053.3  -1.4  778  334           
00 16.12.12 300 (СЗ) 10 км  слаб. снег  10/10 1200 м 
[Sc]
-15.1 -17.4 82 -17  1052  -1.2  777  333           
03 16.12.12 320 (СЗ) 10 км  слаб. снег  10/10 1380 м 
[Sc]
-13.2 -15.9 80 -13  1050  -1.9  776  330  -18.3    0.0  11  равномерный
сухой снег
100% 
06 16.12.12 320 (СЗ) 10 км  {снег}  3/0 верхняя 
[Cs]
-14.4 -17.3 79 -14  1048.2  -1.8  774  331           
09 16.12.12 010 (С) >10 км    ясно 
-12.4 -18.5 61 -16  1046.3  -1.8  773  328           
12 16.12.12 040 (СВ) 10 км    ясно 
-15.7 -20.2 68 -16  1046.2  -0.2  773  332           
15 16.12.12 050 (СВ) 10 км    6/0 средняя 
[Ac lent]
-17.3 -21.1 72 -21  1046  -0.3  773  334    -12.1  0.0     
18 16.12.12 040 (СВ) 10 км    8/8 <0100 м средняя 
[Ac lent]
-17.8 -20.9 77 -18  1045.5  -0.6  772  334           
21 16.12.12 050 (СВ) 10 км    5/5 <0100 м средняя 
[Ac lent]
-17.9 -20.5 80 -20  1045  -0.4  772  334           
00 17.12.12 070 (В) 10 км    8/8 <0100 м средняя 
[Ac As]
-18.1 -20.5 82 -21  1044.7  -0.3  771  335           
03 17.12.12 080 (В) 10 км    8/8 <0100 м средняя 
[Ac lent]
-19.1 -21.3 83 -22  1044.7  0.1  771  336  -19.2      11  равномерный
сухой снег
100% 
06 17.12.12 110 (В) 10 км    3/0 средняя 
[Ac lent]
-19.2 -21.7 81 -22  1044.9  0.2  772  336           
09 17.12.12 120 (ЮВ) >10 км    ясно 
-17.3 -20.5 76 -20  1045.7  0.9  772  334           
12 17.12.12 090 (В) 10 км    ясно 
-17.7 -21 75 -20  1046.4  0.7  773  335           
15 17.12.12 110 (В) 10 км    ясно 
-18.8 -21.5 79 -21  1047.4  0.9  773  336    -16.9       
18 17.12.12 110 (В) 10 км    ясно 
-19.4 -21.9 80 -22  1048.2  0.8  774  337           
21 17.12.12 110 (В) 10 км    ясно 
-19.4 -21.8 81 -22  1048.8  0.5  774  338           
00 18.12.12 110 (В) 10 км    ясно 
-19.5 -21.7 82 -22  1049.6  0.8  775  338           
03 18.12.12 130 (ЮВ) 10 км    ясно 
-19.7 -21.8 83 -20  1050.5  0.9  776  339  -20.4      11  равномерный
сухой снег
100% 
06 18.12.12 120 (ЮВ) 10 км    ясно 
-19.6 -21.7 83 -20  1051.3  0.8  776  339           
09 18.12.12 160 (Ю) >10 км    ясно 
-17.1 -19.7 81 -17  1052.1  0.8  777  336           
12 18.12.12 180 (Ю) >10 км    ясно 
-17.6 -20 81 -18  1052.8  0.7  777  336           
15 18.12.12 120 (ЮВ) 10 км    ясно 
-18.4 -20.6 83 -19  1053.3  0.5  778  338    -16.8       
18 18.12.12 130 (ЮВ) 10 км    ясно 
-19 -21.1 83 -19  1053.9  0.5  778  339           
21 18.12.12 130 (ЮВ) 10 км    ясно 
-19.3 -21.2 85 -20  1054.2  0.3  778  339           
00 19.12.12 тихо ()   10 км    ясно 
-20.2 -22.2 84 -20  1054.8  0.6  779  341           
03 19.12.12 120 (ЮВ) 10 км    ясно 
-20.4 -22.5 83 -21  1055.1  0.2  779  341  -20.6      11  равномерный
сухой снег
100% 
06 19.12.12 тихо ()   10 км  [диам. изморози 2 мм]  ясно 
-20.9 -23.1 83 -21  1055.6  0.5  779  342  -21         
09 19.12.12 190 (Ю) 10 км  [диам. изморози 2 мм]  ясно 
-17.7 -20 82 -18  1055.1  -0.3  779  337           
12 19.12.12 110 (В) 10 км  [диам. изморози 2 мм]  ясно 
-18.4 -20.8 81 -19  1055.2  779  338           
15 19.12.12 080 (В) 10 км  [диам. изморози 2 мм]  ясно 
-20.2 -22.4 83 -20  1055.6  779  341    -16.8       
18 19.12.12 110 (В) 10 км  [диам. изморози 2 мм]  ясно 
-20.6 -22.8 82 -21  1054.7  -0.9  779  341           
21 19.12.12 090 (В) 10 км  [диам. изморози 2 мм]  ясно 
-20.9 -23.2 82 -21  1054.5  -0.2  779  341           
00 20.12.12 тихо ()   10 км  [диам. изморози 2 мм]  ясно 
-21.9 -24.2 82 -22  1054.1  -0.4  778  343           
03 20.12.12 100 (В) 10 км  [диам. изморози 2 мм]  ясно 
-22.2 -24.5 82 -23  1053.3  -0.8  778  343  -22.3      11  равномерный
сухой снег
100% 
06 20.12.12 090 (В) 10 км  [диам. изморози 2 мм]  ясно 
-22.2 -24.6 82 -23  1052.6  -0.7  777  343  -22.5         
09 20.12.12 100 (В) 10 км  [диам. изморози 2 мм]  ясно 
-19.7 -22.4 79 -20  1051.5  -0.9  776  339           
12 20.12.12 110 (В) 10 км  [диам. изморози 2 мм]  ясно 
-19.6 -22.4 78 -22  1050.2  -1.3  775  338           
15 20.12.12 100 (В) 10 км  [диам. изморози 2 мм]  ясно 
-20.3 -22.9 80 -23  1049.2  -1  775  339    -18.9       
18 20.12.12 110 (В) 10 км  [диам. изморози 2 мм]  ясно 
-20.7 -23.3 80 -21  1048  -1.2  774  339           
21 20.12.12 тихо ()   10 км  [диам. изморози 2 мм]  3/0 верхняя 
[Ci fib]
-21.2 -23.8 80 -21  1047.1  -0.9  773  339           
00 21.12.12 тихо ()   10 км  [диам. изморози 2 мм]  ясно 
-20.9 -23.8 78 -21  1046  -1  772  339           
03 21.12.12 тихо ()   10 км  [диам. изморози 2 мм]  ясно 
-21.6 -24.5 77 -22  1045  -1  772  339  -21.7      11  равномерный
сухой снег
100% 
06 21.12.12 100 (В) 10 км    ясно 
-20.6 -23.6 76 -21  1044  -0.9  771  338           
09 21.12.12 100 (В) >10 км    ясно 
-16.9 -21 71 -17  1043  -0.9  770  332           
12 21.12.12 070 (В) 10 км    ясно 
-16.1 -20.5 69 -16  1041.8  -1.1  769  331           
15 21.12.12 040 (СВ) 10 км    ясно 
-18.6 -21.2 80 -21  1041  -1  769  334    -15.8       
18 21.12.12 350 (С) 10 км  [диам. изморози 2 мм]  ясно 
-19.7 -22 81 -20  1040  -1  768  335           
21 21.12.12 020 (С) 10 км  [диам. изморози 2 мм]  ясно 
-21.9 -24.3 81 -25  1039.4  -0.8  767  338           
00 22.12.12 020 (С) 10 км  [диам. изморози 2 мм]  ясно 
-22.9 -25.3 80 -28  1038.7  -0.7  767  339           
03 22.12.12 040 (СВ) 10 км  [диам. изморози 2 мм]  ясно 
-22.7 -25.2 80 -26  1037.5  -0.7  766  338  -23      11  равномерный
сухой снег
100% 
06 22.12.12 030 (СВ) >10 км  [диам. изморози 2 мм]  ясно 
-22.4 -24.9 79 -25  1037.3  -0.2  766  338  -23         
09 22.12.12 020 (С) >10 км  [диам. изморози 2 мм]  ясно 
-20.7 -23.2 81 -24  1036.4  -0.7  765  335           
12 22.12.12 360 (С) >10 км  [диам. изморози 2 мм]  ясно 
-20.7 -23.3 80 -24  1036  -0.4  765  335           
15 22.12.12 360 (С) 10 км  [диам. изморози 2 мм]  ясно 
-22.3 -24.8 80 -25  1035.7  -0.4  765  337    -19.9       
18 22.12.12 360 (С) 10 км    ясно 
-23 -25.4 81 -26  1034.6  -0.4  764  338           
21 22.12.12 350 (С) 10 км  [диам. изморози 2 мм]  ясно 
-23.1 -25.7 79 -26  1033.6  -0.9  763  338           
00 23.12.12 290 (З) 10 км  [диам. изморози 2 мм]  ясно 
-24.6 -27.3 77 -28  1032.6  -1.1  762  339           
03 23.12.12 330 (СЗ) 10 км  [диам. изморози 2 мм]  ясно 
-24.9 -27.7 78 -28  1031.2  -1.5  761  339  -25.5      11  равномерный
сухой снег
100% 
06 23.12.12 340 (С) 10 км  [диам. изморози 2 мм]  ясно 
-25.2 -28 77 -28  1030.5  -0.6  761  339           
09 23.12.12 350 (С) >10 км  [диам. изморози 2 мм]  ясно 
-23.1 -26.3 75 -26  1030.2  -0.2  761  337           
12 23.12.12 340 (С) 10 км  [диам. изморози 2 мм]  ясно 
-22.6 -25.8 75 -26  1029.9  -0.2  760  336           
15 23.12.12 010 (С) 10 км  [диам. изморози 2 мм]  8/0 средняя 
[Ac lent]
-22.7 -25.6 77 -27  1030.4  0.5  761  336    -22.6       
18 23.12.12 360 (С) 10 км  [диам. изморози 2 мм]  1/0 средняя 
[Ac lent]
-22.7 -25.6 77 -26  1030.5  -0.1  761  336           
21 23.12.12 360 (С) 10 км  [диам. изморози 2 мм]  ясно 
-22.7 -25.7 77 -26  1031  0.4  761  336           
00 24.12.12 340 (С) 10 км  [диам. изморози 2 мм]  ясно 
-22.5 -25.4 77 -25  1031.9  0.9  762  336           
03 24.12.12 300 (СЗ) 10 км  [диам. изморози 2 мм]  ясно 
-23.7 -26.3 79 -24  1032.8  0.9  762  338  -23.8      11  равномерный
сухой снег
100% 
06 24.12.12 300 (СЗ) 10 км  [диам. изморози 2 мм]  ясно 
-24.7 -27.4 78 -28  1033.6  0.8  763  340  -24.7         
09 24.12.12 310 (СЗ) 10 км  [диам. изморози 2 мм]  ясно 
-22.5 -25.1 79 -25  1033.6  0.1  763  337           
12 24.12.12 310 (СЗ) 10 км  [диам. изморози 2 мм]  ясно 
-20.5 -23.3 78 -25  1033.1  -0.3  763  334           
15 24.12.12 320 (СЗ) 10 км  [диам. изморози 2 мм]  ясно 
-19.9 -22.8 78 -24  1033.5  0.4  763  333    -19.9       
18 24.12.12 300 (СЗ) 10 км  [диам. изморози 2 мм]  1/0 средняя 
[Ac lent]
-20.9 -23.6 78 -25  1033.9  0.3  763  335           
21 24.12.12 310 (СЗ) 10 км  [диам. изморози 2 мм]  ясно 
-21.6 -24.3 79 -25  1034.6  0.6  764  336           
00 25.12.12 310 (СЗ) 10 км  [диам. изморози 2 мм]  ясно 
-21.4 -24 79 -24  1034.8  0.2  764  336           
03 25.12.12 300 (СЗ) 10 км  [диам. изморози 2 мм]  ясно 
-21.4 -23.9 80 -24  1034.6  -0.2  764  336  -21.8      11  равномерный
сухой снег
100% 
06 25.12.12 тихо ()   >10 км  [диам. изморози 2 мм]  ясно 
-22.8 -25.3 80 -23  1034.8  0.2  764  338  -22.9         
09 25.12.12 160 (Ю) >10 км  [диам. изморози 2 мм]  3/0 верхняя 
[Cs]
-18.5 -22.1 73 -21  1034.5  0.1  764  332           
12 25.12.12 150 (ЮВ) >10 км  [диам. изморози 2 мм]  8/0 верхняя 
[Ci]
-18.6 -22 74 -21  1033.5  -0.9  763  332           
15 25.12.12 150 (ЮВ) 10 км  [диам. изморози 2 мм]  8/0 верхняя 
[Ci]
-18.9 -21.7 78 -23  1032.5  -1  762  332    -18.3       
18 25.12.12 150 (ЮВ) 10 км  [диам. изморози 2 мм]  8/0 верхняя 
[Ci sp]
-17.4 -20.1 79 -21  1030.1  -2.2  761  329           
21 25.12.12 170 (Ю) 10 км  [диам. изморози 2 мм]  8/0 средняя 
[Ac As]
-15.6 -18.5 79 -18  1028  -2.2  759  326           
00 26.12.12 170 (Ю) 10 км  [диам. изморози 2 мм]  5/0 средняя, верхняя 
[Ac trans|Ci fib]
-15.2 -18.6 75 -17  1025.6  -2.3  758  325           
03 26.12.12 180 (Ю) 10 км    10/10 900 м 
[Sc]
-13.7 -18 70 -17  1022.6  -2.8  755  322  -18.9      11  равномерный
сухой снег
100% 
06 26.12.12 180 (Ю) 4-10{11}  1000 м  сильн. снег  10/10 600 м 
[Ns]
-13.2 -15.3 84 -18  1018.4  -4.2  752  320  -18.9         
09 26.12.12 190 (Ю) 5-11{14}  1000 м  сильн. снег  10/10 600 м 
[Ns]
-11.5 -13.1 88 -16  1013.5  -4.7  749  316           
12 26.12.12 190 (Ю) 2{14}  2000 м  снег  10/10 800 м 
[Ns]
-9.3 -10.7 89 -11  1011.1  -2.2  747  313           
15 26.12.12 200 (Ю) 2000 м  снег  10/10 900 м 
[Ns]
-5.6 -6.7 92 -8  1009.3  -1.6  746  308    -5.6  12     
18 26.12.12 220 (ЮЗ) 2000 м  снег  10/10 870 м 
[Ns]
-4 -5 93 -5  1007.4  -1.7  745  305           
21 26.12.12 240 (ЮЗ) 5-11{11}  4000 м  слаб. снег  10/10 870 м 
[Ns]
-1.4 -2.4 93 -5  1008  0.7  745  302           
00 27.12.12 240 (ЮЗ) 4{11}  10 км  {снег}  10/10 900 м 
[Sc]
-0.2 -1.5 91 -3  1009.6  1.6  746  301           
03 27.12.12 250 (З) 10 км    9/9 750 м 
[Sc]
+0.9 -1.1 87 -1  1011.7  2.1  748  300  -5.6    18  равномерный
сухой снег
100% 
06 27.12.12 250 (З) 10 км    10/10 700 м 
[Sc]
+1.1 -1.6 82 1013.7  749  301           
09 27.12.12 210 (ЮЗ) 10 км    10/10 1080 м 
[Sc]
+1 -1.5 83 +2  1014.5  0.8  750  301           
12 27.12.12 210 (ЮЗ) 10 км    10/8 1080 м средняя 
[Sc|As op]
+0.3 -1.6 87 +1  1013.9  -0.6  750  302           
15 27.12.12 160 (Ю) 10 км    10/8 480 м средняя 
[Sc|As op]
-1.5 -2.9 90 -3  1012.4  -1.6  748  304    +1.1       
18 27.12.12 160 (Ю) 4{10}  1000 м  сильн. снег  10/10 180 м 
[Ns]
-3.3 -4.3 93 -6  1009.4  -3.1  746  305           
21 27.12.12 160 (Ю) 1000 м  сильн. снег  10/10 180 м 
[Ns]
-3.6 -4.4 94 -6  1005.6  -3.7  743  304           
00 28.12.12 180 (Ю) 1000 м  сильн. снег  10/10 100 м 
-3.3 -4.1 94 -4  1002.9  -2.5  741  303           
03 28.12.12 180 (Ю) 1000 м  сильн. снег  10/10 100 м 
[Ns]
-2.4 -3.1 95 -2  1001.8  -1  740  301  -3.6    12  28  равномерный
сухой снег
100% 
06 28.12.12 290 (З) 10 км  слаб. снег  10/10 300 м 
[St]
-0.4 -1.2 94 -2  1004.7  2.9  743  300           
09 28.12.12 300 (СЗ) 10 км  {снег}  10/10 300 м 
[St]
-1.1 -2.1 93 -2  1010  5.1  747  302           
12 28.12.12 260 (З) 10 км  {снег}  10/10 270 м 
[St]
-0.3 -1.7 90 -1  1012.6  2.6  749  302           
15 28.12.12 250 (З) 10 км    10/10 270 м 
[St]
+0 -1.4 90 +1  1014.4  1.7  750  302    +0.2  0.4     
18 28.12.12 240 (ЮЗ) 10 км    10/10 450 м 
[Sc]
+0.6 -0.9 90 1014.9  0.6  750  302           
21 28.12.12 230 (ЮЗ) 10 км    10/10 500 м 
[Sc]
+0.8 -1.3 86 +1  1015.5  0.6  751  302           
03 29.12.12 180 (Ю) 10 км  {снег}  10/10 360 м 
[St]
-0.1 -1.7 89 -1  1014.3  -0.8  750  302  -0.1    0.0  28  равномерный
сухой снег
100% 
06 29.12.12 190 (Ю) 10 км  слаб. снег  10/10 400 м 
[St]
-0.5 -2.2 88 -1  1013.7  -0.6  749  303  -0.5         
09 29.12.12 190 (Ю) 4000 м  слаб. снег  10/10 480 м 
[Ns]
-1.2 -2.5 91 -3  1012.2  -1.6  748  303           
12 29.12.12 190 (Ю) 2000 м  снег  10/10 480 м 
[Ns]
-1.5 -2.4 94 -2  1011  -1.2  747  303           
15 29.12.12 240 (ЮЗ) 10 км  {снег}  3/0 верхняя 
[Cs]
-2.4 -4.7 84 -4  1011.8  0.7  748  305    -0     
18 29.12.12 240 (ЮЗ) 10 км  {снег}  9/9 900 м 
[Sc]
-3.9 -6.1 85 -6  1012.3  0.5  748  306           
21 29.12.12 170 (Ю) 10 км    ясно 
-7.8 -8.9 92 -8  1012.3  -0.3  748  311           
00 30.12.12 160 (Ю) 10 км    6/0 средняя 
[Ac cast]
-9.4 -10.4 92 -9  1012.2  0.1  748  313           
03 30.12.12 150 (ЮВ) 10 км  слаб. снег  10/0 средняя 
[As op]
-9.2 -10.2 92 -9  1012  -0.2  748  313  -9.7    0.0  29  равномерный
сухой снег
100% 
06 30.12.12 150 (ЮВ) 10 км  слаб. снег  10/0 средняя 
[As op]
-8.5 -9.5 93 -10  1012.1  0.2  748  312  -9.8         
09 30.12.12 140 (ЮВ) 10 км  слаб. снег  10/0 средняя 
[As op]
-8 -9 93 -10  1012.3  0.2  748  311           
12 30.12.12 120 (ЮВ) 10 км  слаб. снег  10/8 600 м средняя 
[Sc|As op]
-8.8 -9.9 92 -9  1012.6  0.3  748  312           
15 30.12.12 040 (СВ) 10 км  {снег}  10/10 800 м 
[Sc]
-8.8 -9.9 92 -9  1014  1.3  749  313    -7.8  0.7     
18 30.12.12 020 (С) 10 км  слаб. снег  10/10 480 м 
[Sc]
-8.8 -9.9 92 -9  1015  750  313           
21 30.12.12 020 (С) 10 км  {снег}  10/10 480 м 
[Sc]
-8.3 -9.4 92 -8  1015.2  0.2  750  313           
00 31.12.12 020 (С) 10 км  {снег}  10/10 480 м 
[Sc]
-8.2 -9.4 91 -8  1015.4  0.3  750  313           
03 31.12.12 010 (С) 10 км  слаб. снег  10/10 480 м 
[Sc]
-8.3 -9.6 90 -8  1015.3  -0.2  750  313  -9.6    0.2  29  равномерный
сухой снег
100% 
06 31.12.12 310 (СЗ) 10 км  слаб. снег  10/10 540 м 
[Sc]
-7.7 -8.9 91 -7  1015.1  0.1  750  312           
09 31.12.12 340 (С) 10 км  слаб. снег  10/8 480 м средняя 
[Sc|As op]
-6.5 -7.9 90 -6  1014.4  -0.6  750  310           
12 31.12.12 290 (З) 10 км  {снег}  5/0 средняя 
[Ac lent]
-6.9 -8.7 87 -7  1014.7  0.2  750  311           
15 31.12.12 310 (СЗ) 10 км  слаб. снег  10/6 300 м средняя 
[Frnb|As op]
-8.4 -9.6 91 -11  1014.2  -0.6  749  312    -6.4  0.0     
18 31.12.12 330 (СЗ) 10 км  {снег}  10/10 700 м 
[Sc]
-7.3 -8.5 91 -7  1013.9  -0.2  749  311           
21 31.12.12 310 (СЗ) 4000 м  слаб. снег  10/10 630 м 
[Sc]
-7.9 -9 92 -8  1014  -0.2  749  312           
00 01.01.13 290 (З) 10 км  слаб. снег  10/0 средняя 
[As op]
-8 -9.1 92 -10  1013.9  0.1  749  312           
03 01.01.13 300 (СЗ) 10 км  слаб. снег  10/0 средняя 
[As op]
-8.6 -9.7 92 -10  1014.1  0.2  749  313  -8.6    0.2  30  равномерный
сухой снег
100% 
06 01.01.13 300 (СЗ) 4000 м  снег  10/10 400 м 
[Ns]
-8.8 -9.9 92 -10  1014.8  0.6  750  313  -8.8         
09 01.01.13 290 (З) 10 км  слаб. снег  9/9 600 м 
[Sc]
-8.5 -9.8 90 -8  1015.7  0.9  750  313           
12 01.01.13 290 (З) 10 км  слаб. снег  10/0 средняя 
[As op]
-8.1 -9.5 90 -8  1017  1.3  751  313           
15 01.01.13 290 (З) 10 км  слаб. снег  10/0 средняя 
[Ac As]
-8 -9.3 90 -8  1018.2  1.3  752  313    -7.9  0.3     
18 01.01.13 300 (СЗ) 10 км  слаб. снег  10/0 <0100 м средняя 
[Ac As]
-8.2 -9.4 91 -8  1019.2  0.9  753  314           
21 01.01.13 280 (З) 10 км  в посл. час снег  10/10 400 м 
[St]
-8.7 -9.8 92 -8  1020.5  1.2  754  315           
00 02.01.13 320 (СЗ) 10 км  слаб. снег  10/10 400 м 
[Ns]
-8.8 -9.8 92 -9  1021.6  1.1  755  315           
03 02.01.13 тихо ()   0500 м  переохл. туман{снег} [диам. изморози 1 мм]  10/10 100 м 
[St]
-9.5 -10.5 92 -10  1022.3  0.7  755  316  -9.5    0.0  30  равномерный
сухой снег
100% 
06 02.01.13 160 (Ю) 0500 м  сильн. снег [диам. изморози 1 мм]  10/10 100 м 
[St]
-10 -11 92 -10  1023.6  1.2  756  317  -9.9         
09 02.01.13 150 (ЮВ) 4000 м  в посл. час снег  10/0 средняя 
[As op]
-11.2 -12.3 92 -13  1023.9  0.2  756  319           
12 02.01.13 150 (ЮВ) 0500 м  слаб. снег{туман} [диам. изморози 3 мм]  10/0 средняя 
[As op]
-12.2 -13.4 91 -14  1024  0.1  756  320           
15 02.01.13 160 (Ю) 0500 м  переохл. туман{снег} [диам. изморози 7 мм]  10/0 средняя 
[As op]
-12 -13.3 90 -14  1023.4  -0.6  756  320    -9.5  0.0     
Время (UTC), дата Ветер
(°,м/с) 
Видим.   Явления Облачность Т
(°С)
Тd
(°С)
f(%) Тe
(°С)
Pmin
(гПа)
dP
(гПа)
Po
(мм)
O2
(г/м3)
Тmin Tmax R s Состояние
почвы